Flag for Norway Weather past 2 weeks in Narvik, Norway

Now
45 °F

More clouds than sun.


Feels Like: 45 °F
Forecast: 47 / 56 °F
Wind: 1 mph from North

Location: Evenes

Current Time: May 29, 2015 at 2:51:23 AM

Latest Report: May 29, 2015 at 1:50 AM


Visibility: N/A

Pressure: 29.62 "Hg

Humidity: 93%

Dew point: 43 °F

Location of NarvikLocation

Historic Weather in Narvik — Graph

°F

Narvik temperature yesterday

Maximum temperature yesterday: 46 °F (at 12:50 AM)
Minimum temperature yesterday: 45 °F (at 10:50 AM)
Average temperature yesterday: 46 °F

Past Weeks' High & Low Weather Summary

 TemperatureHumidityPressure
High61 °F (May 26, 3:50 PM)100% (May 19, 3:50 AM)30.01 "Hg (May 19, 3:50 AM)
Low28 °F (May 16, 3:20 AM)34% (May 26, 3:50 PM)29.45 "Hg (May 23, 2:20 PM)
Average43 °F71%29.76 "Hg
* Reported May 14 1:20 AM — May 29 1:20 AM, Narvik, Weather by CustomWeather, © 2015

Note: Actual official high and low records may vary slightly from our data, if they occured in-between our weather recording intervals... More about our weather records

Advertising

Narvik weather history for previous 24 hours

 ConditionsComfort  
Time TempWeatherWind HumidityBarometerVisibility
1:20 AM
Fri, May 29
45 °FDrizzle. Mostly cloudy.2 mph93%29.62 "HgN/A
11:50 PM
Thu, May 28
45 °FDrizzle. Broken clouds.No wind93%29.62 "Hg4 mi
10:50 PM45 °FDrizzle. Broken clouds.No wind93%29.62 "Hg4 mi
9:50 PM45 °FDrizzle. Broken clouds.2 mph93%29.62 "HgN/A
8:50 PM45 °FPartly sunny.2 mph93%29.59 "HgN/A
7:50 PM45 °FDrizzle. Partly sunny.2 mph100%29.59 "HgN/A
6:50 PM46 °FDrizzle. Partly sunny.2 mph87%29.62 "HgN/A
5:50 PM45 °FLight rain. Broken clouds.3 mph93%29.62 "HgN/A
4:50 PM46 °FDrizzle. Broken clouds.3 mph87%29.62 "HgN/A
3:50 PM45 °FDrizzle. Broken clouds.2 mph100%29.59 "HgN/A
2:50 PM45 °FDrizzle. Light fog.3 mph93%29.59 "Hg6 mi
2:20 PM45 °FPartly sunny.5 mph93%29.59 "Hg5 mi
1:50 PM46 °FDrizzle. Partly sunny.5 mph87%29.59 "Hg5 mi
12:50 PM46 °FPartly sunny.5 mph87%29.59 "HgN/A
11:50 AM45 °FPartly sunny.7 mph93%29.59 "HgN/A
10:50 AM45 °FRain. Partly sunny.13 mph93%29.59 "Hg6 mi
9:50 AM46 °FDrizzle. Partly sunny.12 mph87%29.59 "HgN/A
8:50 AM46 °FDrizzle. Partly sunny.9 mph87%29.59 "HgN/A
7:50 AM46 °FDrizzle. Partly sunny.8 mph87%29.59 "HgN/A
7:20 AM46 °FBroken clouds.8 mph87%29.59 "HgN/A
6:50 AM46 °FLight rain. Broken clouds.7 mph87%29.59 "HgN/A
5:50 AM46 °FLight rain. Partly sunny.6 mph87%29.56 "HgN/A
5:20 AM46 °FCloudy.5 mph87%29.59 "HgN/A
4:50 AM46 °FMostly cloudy.6 mph87%29.59 "HgN/A
4:20 AM46 °FMostly cloudy.5 mph87%29.59 "HgN/A
3:50 AM46 °FPartly sunny.6 mph87%29.59 "HgN/A
3:20 AM46 °FPartly sunny.7 mph87%29.59 "HgN/A
2:50 AM46 °FPartly sunny.6 mph87%29.59 "HgN/A
2:20 AM46 °FOvercast.8 mph87%29.59 "HgN/A
Weather by CustomWeather, © 2015

See weather overviewHow to use our weather pages